星链-32394 (STARLINK-32394)

导读

STARLINK-32394是美国太空探索技术公司(SpaceX)星链(Starlink)互联网卫星项目中的一颗卫星,于2024年11月7日发射升空,归属美国所有。作为星链星座组网的组成部分,它主要服务于为全球范围提供高速低延迟互联网接入服务,进一步拓展星链星座的覆盖能力与服务容量。

Basic Information
目录编号:
61853
目录名称:
STARLINK-32394
国际标识:
2024-202J
轨道中心:
EARTH
卫星名称:
星链-32394
卫星全名:
星链-32394 (STARLINK-32394)
卫星状态:
在轨 (已飞行666 天)
发射日期:
2024-11-07 UTC
国别 :
美国 (US)
星等 :
--
Orbit Information
数据来源 国际轨道数据 AOE轨道数据
星历时间 2026-09-04T11:32:40+0800
13小时前
查看轨道信息
2026-09-03T08:00:00+0800
1天前
查看轨道信息
半长轴 6861.195km 6861.195km
偏心率 0.0001117 0.0001328
轨道倾角 43.001° 43.003°
近地点辐角 283.811° 273.441°
升交点赤经 309.881° 316.362°
平近点角 76.262° 247.782°
近地点 482.291km 482.146km
远地点 483.825km 483.97km
周期 94.267分钟 94.267分钟
每日圈数 15.275772 15.275771
Detailed Information
固有亮度:
5
最大亮度:
2.5
卫星平台:
Starlink V1.0
覆盖范围:
全球
运营商:
太空探索技术公司
运营商所在国:
美国
制造商(研发单位):
太空探索技术公司
制造商所在国:
美国
使用方式:
暂无
Satellite Introduction
Starlink 计划是 SpaceX 推出的全球卫星互联网项目,通过发射低轨道卫星,为全球尤其是偏远地区提供高速、低延迟的互联网服务。自 2019 年起,Starlink 已部署数千颗卫星,旨在缩小全球数字鸿沟,推动互联网普及。该项目还为军事、航空等行业提供通信支持,带来广泛经济效益。
2D Orbit Map
3D Orbit Map
Orbit Altitude Analysis Chart
Orbit Inclination Analysis Chart
Orbit Comprehensive Analysis Chart
View Comprehensive Chart
Conjunction Data List
Event ID Objects TCA Miss Dist (km) Collision Risk Probability Collision Risk Index (CRI) Action
CDM_260907-001906-185306-751221
2026-09-07T
00:19:52+0000
0.979 km
远距离
1.628629E-5 中风险 0.59
CDM_260906-224506-185306-751221
2026-09-06T
22:45:43+0000
1.310 km
极远距离
5.981342E-6 低风险 0.51